Voltar ao catálogo

STARLINK-36299

AtivoComunicaçõesVLEO
NORAD 68534·PAYLOAD·🇺🇸 United States

Lançado Mar 30, 2026 de Cape Canaveral Space Force Station

Loading…

Próximas Passagens (próximas 24 horas)

TLE

AtualizadoSource: CelesTrak SupGP

Época: Sep 15, 2026, 04:11 UTC

1 68534C 26068AC  26258.17479167  .00039103  00000+0  11548-2 0  2587
2 68534  53.1581 324.6738 0001148  95.8533  85.5881 15.34383978    18

Acompanhe STARLINK-36299 em tempo real com AllMySat

Download on the App Store